TimeCDT,TemperatureF,Dew PointF,Humidity,Sea Level PressureIn,VisibilityMPH,Wind Direction,Wind SpeedMPH,Gust SpeedMPH,PrecipitationIn,Events,Conditions,WindDirDegrees,DateUTC
6:02 AM,50.0,42.8,76,30.28,8.0,WNW,5.8,-,N/A,,Clear,300,2012-10-02 11:02:00
6:40 AM,48.2,42.8,82,29.94,8.0,Calm,Calm,-,N/A,,Clear,0,2012-10-02 11:40:00
6:55 AM,52,42,61,30.01,6,Calm,Calm,,,,,,2012-10-02 11:55:00
7:41 AM,46.4,41.0,81,30.31,12.0,Calm,Calm,-,N/A,,Clear,0,2012-10-02 12:41:00
8:44 AM,50.0,42.8,76,30.32,14.0,Calm,Calm,-,N/A,,Clear,0,2012-10-02 13:44:00
9:45 AM,59.0,44.6,59,30.00,14.0,Calm,Calm,-,N/A,,Clear,0,2012-10-02 14:45:00
9:58 AM,59,47,56,30.06,25,East,4.5,,,,,90,2012-10-02 14:58:00
10:43 AM,62.6,41.0,45,30.33,14.0,NNE,6.9,-,N/A,,Clear,30,2012-10-02 15:43:00
11:46 AM,66.2,37.4,35,30.33,14.0,NE,8.1,-,N/A,,Clear,50,2012-10-02 16:46:00
12:46 PM,69.8,32.0,25,29.95,14.0,East,10.4,-,N/A,,Clear,80,2012-10-02 17:46:00
12:56 PM,74,40,19,30.00,31,East,4.5,,,,,80,2012-10-02 17:56:00
1:46 PM,71.6,30.2,22,30.27,14.0,ENE,11.5,-,N/A,,Clear,60,2012-10-02 18:46:00
2:44 PM,73.4,28.4,19,30.23,14.0,East,8.1,-,N/A,,Clear,80,2012-10-02 19:44:00
3:49 PM,75.2,23.0,14,29.87,14.0,NE,15.0,-,N/A,,Clear,50,2012-10-02 20:49:00
3:55 PM,78,34,11,29.85,31,East,6.7,,,,,90,2012-10-02 20:55:00
4:42 PM,75.2,23.0,14,30.20,14.0,NNE,11.5,-,N/A,,Clear,30,2012-10-02 21:42:00
5:41 PM,73.4,23.0,15,30.19,14.0,NNE,13.8,-,N/A,,Clear,30,2012-10-02 22:41:00
6:46 PM,73.4,21.2,14,29.88,14.0,NE,8.1,-,N/A,,Clear,40,2012-10-02 23:46:00
6:55 PM,75,37,15,29.77,31,ESE,2.2,,,,,120,2012-10-02 23:55:00
7:43 PM,68.0,28.4,23,30.21,14.0,NNE,5.8,-,N/A,,Clear,30,2012-10-03 00:43:00
8:46 PM,62.6,32.0,32,30.23,10.0,NE,5.8,-,N/A,,Clear,40,2012-10-03 01:46:00
9:41 PM,60.8,33.8,36,29.90,8.0,NE,4.6,-,N/A,,Clear,50,2012-10-03 02:41:00
9:50 PM,63,40,32,29.79,6,Calm,Calm,,,,,,2012-10-03 02:50:00